SCP
-0 -0 -0 -0 -0 -0 -0 -0 -0 -0 -0 -0 -0 -0 -0 -0 -0 -0 -0 -0 -0 -0 -0 -0 -0 -0 -0 0 0 0 0 0 0 0 0 0 -0 -0 -0 0 0 -0 0
-0 -0 -0 -0 -0 -0 -0 -0 -0 -0 -0 -0 -0 -0 -0 -0 -0 -0 -0 -0 -0 -0 -0 -0 -0 -0 -0 -0 0 0 0 0 0 0 0 0 -0 -0 -0 0 0 0 0
-0 -0 -0 -0 -0 -0 -0 -0 -0 -0 -0 -0 -0 -0 -0 -0 -0 -0 -0 -0 -0 -0 -0 -0 -0 -0 -0 -0 -0 -0 -0 0 0 0 0 0 0 0 0 0 0 0 0
0 -0 0 -0 -0 -0 -0 -0 -0 -0 -0 -0 -0 -0 -0 -0 -0 -0 -0 -0 -0 -0 -0 -0 -0 -0 -0 -0 -0 -0 0 0 0 0 0 0 0 0 0 0 0 0 0
0 0 0 0 0 -0 -0 -0 -0 -0 -0 -0 -0 -0 -0 -0 -0 -0 -0 -0 0 0 0 0 0 0 0 0 0 0 0 0 0 0 0 0 0 0 0 0 0 0 0
0 0 0 0 0 0 -0 -0 0 -0 -0 -0 -0 -0 -0 0 0 0 0 0 0 0 0 0 0 0 0 0 0 0 0 0 0 0 0 0 0 0 0 0 0 0 0
0 0 0 0 0 0 0 0 0 0 0 0 0 0 0 0 0 0 0 0 0 0 0 0 0 0 0 0 0 0 0 0 0 0 0 0 0 0 0 0 0 0 0
0 0 0 0 0 0 0 0 0 0 0 0 0 0 0 0 0 0 0 0 -0 0 0 0 0 0 0 0 0 0 0 0 0 0 0 0 0 0 0 0 0 0 0
0 0 0 0 0 0 0 0 0 0 0 0 0 0 0 0 0 0 0 0 0 0 0 0 0 0 0 0 0 0 0 0 0 0 0 0 0 0 0 0 0 0 0
0 0 0 0 0 0 0 0 0 0 0 0 0 0 0 0 0 0 0 0 0 0 0 0 0 0 0 0 0 0 0 0 0 0 0 0 0 0 0 0 0 0 0
0 0 0 0 0 0 0 0 0 0 0 0 0 0 0 0 0 0 0 0 0 0 0 0 0 0 0 0 0 0 0 0 0 0 0 0 0 0 0 0 0 0 0
0 0 0 0 0 0 0 0 0 0 0 0 0 0 0 0 0 0 0 0 0 0 0 0 0 0 0 0 0 0 0 0 0 0 0 0 0 0 0 0 0 0 0
0 0 0 0 0 0 0 0 0 0 0 0 0 0 0 0 0 0 0 0 0 0 0 0 0 0 0 0 0 0 0 0 0 0 0 0 0 0 0 0 0 0 0
0 0 0 0 0 0 0 0 0 0 0 0 0 0 0 0 0 0 0 0 0 0 0 0 0 0 0 0 0 0 0 0 0 0 0 0 0 0 0 0 0 0 0
0 0 0 0 0 0 0 0 0 0 0 0 0 0 0 0 0 0 0 0 0 0 0 0 0 0 0 0 0 0 0 0 0 0 0 0 0 0 0 0 0 0 0
0 0 0 0 0 0 0 0 0 0 0 0 0 0 0 0 0 0 0 0 0 0 0 0 0 0 0 0 0 0 0 0 0 0 0 0 0 0 0 0 0 0 0
0 0 0 0 0 0 0 0 0 0 0 0 0 0 0 0 0 0 0 0 0 0 0 0 -0 0 0 0 0 0 0 0 0 0 0 0 0 0 0 0 0 0 0
0 0 0 0 0 0 0 0 0 0 0 0 0 0 0 0 0 0 0 0 0 0 0 0 0 0 0 0 0 0 0 0 0 0 0 0 0 0 0 0 0 0 0
0 0 0 0 0 0 0 0 0 0 0 0 0 0 0 0 0 0 0 0 0 0 0 0 0 0 0 0 0 0 0 0 0 0 0 0 0 0 0 0 0 0 0
0 0 0 0 0 0 0 0 0 0 0 0 0 0 0 0 0 0 0 0 0 0 0 0 0 0 0 0 0 0 0 0 0 0 0 0 0 0 0 0 0 0 0
0 0 0 0 0 0 0 0 0 0 0 0 0 0 0 0 0 0 0 0 0 0 0 0 0 0 0 0 -0 -0 0 0 0 0 -0 0 0 0 0 0 0 0 0
0 0 0 0 0 0 0 0 0 0 0 0 0 0 0 0 0 0 0 0 0 0 0 0 0 0 0 0 -0 -0 -0 -0 0 0 0 0 0 0 0 0 0 0 0
0 0 0 0 0 0 0 0 0 0 0 0 0 0 0 0 0 0 0 0 0 0 0 0 0 0 0 0 0 0 -0 0 0 -0 0 0 0 0 0 0 0 0 0
0 0 0 0 0 0 0 0 0 0 0 0 0 0 0 0 0 0 0 0 0 0 0 0 0 0 0 0 0 0 0 0 0 0 -0 0 0 0 0 0 0 -0 -0
0 0 0 0 0 0 0 0 0 0 0 0 0 0 0 0 0 0 0 0 0 0 0 0 0 0 0 0 0 0 0 0 0 0 0 0 0 0 0 0 0 0 0
0 0 0 0 0 0 0 0 0 0 0 0 0 0 0 0 0 0 0 0 0 0 0 0 0 0 0 0 0 0 0 0 0 0 0 0 0 0 0 0 0 0 -0
Wind_Speed_500mb
18 16 17 18 16 14 12 13 10 9 8 7 8 6 2 3 3 7 7 8 10 12 13 14 14 21 19 16 17 16 18 19 20 19 18 17 15 15 16 18 17 15 13
20 18 17 15 14 14 13 14 12 10 10 10 8 10 9 8 8 12 14 14 14 12 12 14 16 16 19 21 20 20 20 20 22 23 22 19 16 16 17 18 17 16 13
21 20 17 17 15 12 11 11 12 11 10 12 14 13 14 16 17 19 18 18 17 18 18 17 19 22 24 27 28 28 26 23 23 22 20 19 11 21 19 20 18 15 16
25 21 18 15 10 8 7 8 8 9 12 15 17 18 20 20 20 20 21 22 22 23 24 27 28 30 30 29 28 30 30 30 28 24 21 17 9 6 20 21 18 17 14
27 19 16 12 10 9 8 7 8 9 12 13 16 18 19 20 22 22 24 25 27 28 30 32 33 35 33 32 33 33 36 31 30 27 23 13 22 18 22 20 19 19 18
30 22 16 15 14 10 8 6 4 3 4 4 6 9 9 11 13 16 19 21 22 24 25 29 31 34 35 37 39 40 40 35 32 30 26 20 22 23 23 29 24 21 20
31 24 22 18 11 9 6 4 4 5 5 5 7 8 9 10 12 14 15 18 21 25 28 30 31 32 33 35 36 39 41 40 37 35 31 24 24 28 32 27 29 27 25
32 25 24 21 19 17 13 10 7 6 6 6 7 8 9 9 10 12 14 15 17 19 22 26 29 31 33 33 35 37 37 37 39 40 35 30 33 31 32 33 28 29 30
34 32 31 29 25 20 15 12 9 7 6 6 6 5 6 8 9 11 14 16 21 25 30 32 34 34 35 33 33 33 33 32 36 37 34 26 28 27 33 35 31 31 32
39 38 37 31 27 22 18 14 10 9 8 7 5 4 4 4 6 11 16 22 27 31 34 36 38 37 37 36 35 31 31 32 32 33 32 30 38 37 40 44 43 39 36
46 45 44 39 34 29 22 17 14 13 12 11 9 8 7 7 11 14 17 21 24 28 32 35 37 39 39 39 38 36 34 31 29 30 30 33 43 47 50 53 54 47 43
51 51 49 44 40 34 29 23 20 19 17 15 13 12 9 8 10 13 16 19 22 25 29 30 31 32 33 33 34 35 36 34 33 31 31 34 37 42 47 49 52 54 52
52 53 54 50 47 40 36 30 28 26 24 21 19 16 14 14 15 18 20 22 24 27 30 32 32 31 31 32 33 34 35 36 37 37 35 35 38 39 41 46 47 53 54
57 55 56 55 53 45 42 37 36 33 30 29 26 22 20 21 21 22 24 25 27 30 34 35 35 33 32 32 33 34 36 39 40 41 40 41 42 42 41 42 44 45 49
60 61 60 58 56 51 45 44 41 37 35 32 30 26 25 24 24 25 25 25 27 32 37 38 37 36 34 33 34 36 36 38 42 44 43 40 44 45 45 45 43 43 44
65 66 65 63 60 56 51 49 46 43 40 37 34 31 29 27 25 25 24 25 29 33 37 40 43 43 43 43 42 42 43 43 41 43 46 47 48 47 48 48 47 46 44
70 71 72 66 62 62 57 55 52 49 44 42 39 36 32 30 26 24 24 27 30 33 38 43 45 45 46 47 46 46 47 46 46 44 46 48 45 45 48 49 50 51 50
69 77 75 70 66 66 63 60 57 53 50 49 44 40 35 32 27 25 25 28 30 34 39 43 45 46 47 51 54 54 56 57 57 57 50 40 35 36 39 40 41 43 44
72 77 79 74 69 69 66 63 61 57 54 50 46 42 38 33 29 28 28 30 31 34 37 40 42 45 49 52 56 59 60 62 60 46 42 44 36 28 23 29 48 55 52
73 79 77 74 71 68 68 66 66 60 56 56 51 49 45 41 36 32 31 31 32 34 36 40 42 41 46 54 61 62 63 61 63 49 37 29 38 48 49 56 49 49 63
77 81 80 77 75 72 76 76 73 69 65 62 58 56 51 47 40 35 34 33 33 34 37 39 41 42 44 53 65 73 67 70 36 33 50 58 53 54 56 46 58 55 50
80 83 82 80 75 76 79 77 73 67 68 62 61 60 56 51 42 38 37 36 34 34 37 39 42 42 42 46 55 59 42 60 19 70 43 54 56 43 52 58 62 77 71
79 85 85 80 75 76 79 78 77 71 69 70 70 68 62 56 49 43 40 37 36 36 37 40 42 41 40 42 42 40 23 20 76 22 79 40 37 47 67 74 81 89 86
74 79 81 79 76 76 80 83 88 89 85 82 74 68 65 60 53 45 41 38 38 37 39 41 42 39 39 44 46 43 47 53 35 53 58 42 76 77 87 94 92 95 95
66 75 79 80 78 77 81 84 88 88 83 73 71 69 68 62 54 48 42 41 39 39 41 43 41 38 38 45 46 48 54 54 54 62 97 74 90 100 99 104 105 114 113
65 70 77 79 79 81 83 82 88 87 86 82 81 77 71 64 58 52 46 43 41 42 44 43 43 41 41 46 51 53 56 58 58 56 78 112 116 120 112 119 117 113 111
Wind_Direction_500mb
193 185 188 194 180 166 152 143 149 151 165 166 195 204 240 251 294 286 300 333 339 339 336 339 345 341 332 330 334 337 329 317 311 313 317 318 321 321 324 330 346 348 337
198 176 180 187 195 194 196 202 194 194 204 217 234 252 275 294 293 294 302 305 309 319 340 340 331 325 325 333 322 321 320 321 319 316 317 321 330 314 318 322 326 330 331
183 187 184 185 182 192 205 221 223 239 249 261 273 280 277 283 289 291 296 294 292 296 299 304 306 307 309 316 316 315 312 312 315 320 320 312 336 336 316 314 306 320 321
184 198 183 187 190 198 216 235 254 256 262 271 278 279 281 286 288 290 292 294 296 295 295 297 299 299 304 305 306 307 306 309 312 316 323 318 287 297 300 300 293 297 305
197 201 196 186 193 201 202 219 240 253 258 266 273 278 283 283 283 284 286 289 292 292 291 292 294 296 296 295 296 296 295 304 309 311 308 309 301 273 269 289 296 285 288
201 194 197 191 185 180 175 183 183 196 239 260 266 268 277 284 291 297 303 306 306 303 303 304 304 301 299 297 295 294 299 305 302 300 301 292 284 291 278 271 277 282 278
206 198 194 192 193 205 212 211 239 266 276 284 282 297 301 305 307 309 311 314 318 319 318 315 311 310 307 306 303 300 297 293 291 291 294 291 286 283 286 285 272 274 279
211 206 198 200 206 208 206 217 228 239 261 281 297 303 308 311 323 332 332 334 332 331 329 326 327 324 323 321 314 309 303 298 293 287 289 293 289 288 288 279 277 269 266
214 213 209 210 214 213 214 217 222 235 250 269 280 300 323 337 346 350 352 349 350 349 343 340 338 334 329 325 319 316 314 308 295 292 288 283 283 281 279 283 272 270 264
218 219 221 219 223 223 222 218 220 237 245 244 241 246 272 308 338 351 356 355 353 347 338 331 326 322 320 319 319 321 315 309 307 300 291 277 267 266 272 280 282 270 267
220 222 223 223 227 227 224 223 224 229 232 233 239 253 278 323 339 348 352 351 346 336 329 323 318 317 316 317 317 317 316 315 309 301 293 277 273 273 272 275 277 277 271
225 223 225 225 226 228 228 228 230 236 241 244 252 271 281 299 319 326 326 322 322 322 323 321 317 314 312 312 311 311 313 314 314 310 303 296 293 289 284 275 274 274 271
231 227 227 225 226 224 228 226 230 234 238 242 247 251 262 278 291 297 301 304 310 319 323 323 320 317 316 316 317 317 315 315 313 310 308 306 302 297 291 289 282 274 270
230 233 228 224 226 224 226 224 227 229 229 233 236 240 252 263 271 279 287 294 303 314 324 328 327 323 320 320 318 315 316 314 312 309 308 306 303 301 298 294 290 285 277
230 232 232 227 225 224 226 227 228 229 230 231 233 240 249 258 268 278 285 294 307 317 326 330 330 327 323 323 324 322 318 316 314 314 309 302 298 297 296 293 290 286 281
230 230 234 229 225 224 224 227 230 230 231 232 235 238 246 255 265 274 284 297 308 318 325 329 331 331 331 330 331 328 326 323 318 315 311 308 303 299 294 291 288 284 281
227 229 233 231 224 223 223 227 227 228 229 232 235 239 246 255 263 272 285 297 309 319 328 333 333 332 331 330 329 327 325 322 320 317 312 306 302 299 294 290 286 284 281
227 227 231 231 225 223 222 226 228 228 228 230 232 237 242 249 256 268 281 296 310 322 331 333 331 328 328 328 328 328 327 326 325 320 311 306 301 294 289 289 293 295 293
228 228 229 230 225 222 221 224 227 227 228 231 236 241 245 251 259 270 283 296 310 321 326 325 323 325 327 326 324 325 326 326 326 324 321 310 306 306 306 304 301 297 295
229 230 231 230 226 221 221 222 226 227 228 232 235 238 241 246 253 265 279 293 304 313 314 318 320 321 324 326 325 325 327 331 330 320 324 322 326 314 308 310 312 314 310
225 226 228 227 226 221 221 222 225 227 228 231 233 237 239 244 250 262 273 283 292 299 308 314 312 317 326 327 328 328 330 338 335 344 330 319 313 311 300 303 302 305 307
224 223 225 230 228 227 227 228 230 230 230 234 234 236 239 243 249 259 269 278 286 295 303 307 306 316 324 330 328 331 332 335 301 317 310 309 295 293 295 300 299 299 302
221 224 227 231 230 228 229 227 228 226 229 230 232 236 238 241 245 254 265 274 283 290 298 302 305 309 316 324 320 319 324 301 313 315 316 320 297 295 299 296 298 302 303
229 227 227 228 230 229 231 229 229 231 229 235 239 238 237 239 243 249 258 269 277 286 291 294 297 303 306 312 313 313 308 306 314 313 326 296 300 302 302 301 301 302 304
226 223 223 225 228 230 231 231 232 234 235 237 236 234 236 239 241 247 257 266 274 281 285 288 292 298 300 301 302 307 303 296 295 293 303 302 301 304 302 302 299 301 303
222 220 220 221 225 228 231 234 235 236 234 232 232 232 235 238 240 247 256 263 270 274 278 284 290 295 296 296 302 302 295 292 293 289 290 301 303 305 302 302 302 303 304
Wind_Speed_850mb
18 16 17 18 16 14 12 13 10 9 8 7 8 6 2 3 3 7 7 8 10 12 13 14 14 21 19 16 17 16 18 19 20 19 18 17 15 15 16 18 17 15 13
20 18 17 15 14 14 13 14 12 10 10 10 8 10 9 8 8 12 14 14 14 12 12 14 16 16 19 21 20 20 20 20 22 23 22 19 16 16 17 18 17 16 13
21 20 17 17 15 12 11 11 12 11 10 12 14 13 14 16 17 19 18 18 17 18 18 17 19 22 24 27 28 28 26 23 23 22 20 19 11 21 19 20 18 15 16
25 21 18 15 10 8 7 8 8 9 12 15 17 18 20 20 20 20 21 22 22 23 24 27 28 30 30 29 28 30 30 30 28 24 21 17 9 6 20 21 18 17 14
27 19 16 12 10 9 8 7 8 9 12 13 16 18 19 20 22 22 24 25 27 28 30 32 33 35 33 32 33 33 36 31 30 27 23 13 22 18 22 20 19 19 18
30 22 16 15 14 10 8 6 4 3 4 4 6 9 9 11 13 16 19 21 22 24 25 29 31 34 35 37 39 40 40 35 32 30 26 20 22 23 23 29 24 21 20
31 24 22 18 11 9 6 4 4 5 5 5 7 8 9 10 12 14 15 18 21 25 28 30 31 32 33 35 36 39 41 40 37 35 31 24 24 28 32 27 29 27 25
32 25 24 21 19 17 13 10 7 6 6 6 7 8 9 9 10 12 14 15 17 19 22 26 29 31 33 33 35 37 37 37 39 40 35 30 33 31 32 33 28 29 30
34 32 31 29 25 20 15 12 9 7 6 6 6 5 6 8 9 11 14 16 21 25 30 32 34 34 35 33 33 33 33 32 36 37 34 26 28 27 33 35 31 31 32
39 38 37 31 27 22 18 14 10 9 8 7 5 4 4 4 6 11 16 22 27 31 34 36 38 37 37 36 35 31 31 32 32 33 32 30 38 37 40 44 43 39 36
46 45 44 39 34 29 22 17 14 13 12 11 9 8 7 7 11 14 17 21 24 28 32 35 37 39 39 39 38 36 34 31 29 30 30 33 43 47 50 53 54 47 43
51 51 49 44 40 34 29 23 20 19 17 15 13 12 9 8 10 13 16 19 22 25 29 30 31 32 33 33 34 35 36 34 33 31 31 34 37 42 47 49 52 54 52
52 53 54 50 47 40 36 30 28 26 24 21 19 16 14 14 15 18 20 22 24 27 30 32 32 31 31 32 33 34 35 36 37 37 35 35 38 39 41 46 47 53 54
57 55 56 55 53 45 42 37 36 33 30 29 26 22 20 21 21 22 24 25 27 30 34 35 35 33 32 32 33 34 36 39 40 41 40 41 42 42 41 42 44 45 49
60 61 60 58 56 51 45 44 41 37 35 32 30 26 25 24 24 25 25 25 27 32 37 38 37 36 34 33 34 36 36 38 42 44 43 40 44 45 45 45 43 43 44
65 66 65 63 60 56 51 49 46 43 40 37 34 31 29 27 25 25 24 25 29 33 37 40 43 43 43 43 42 42 43 43 41 43 46 47 48 47 48 48 47 46 44
70 71 72 66 62 62 57 55 52 49 44 42 39 36 32 30 26 24 24 27 30 33 38 43 45 45 46 47 46 46 47 46 46 44 46 48 45 45 48 49 50 51 50
69 77 75 70 66 66 63 60 57 53 50 49 44 40 35 32 27 25 25 28 30 34 39 43 45 46 47 51 54 54 56 57 57 57 50 40 35 36 39 40 41 43 44
72 77 79 74 69 69 66 63 61 57 54 50 46 42 38 33 29 28 28 30 31 34 37 40 42 45 49 52 56 59 60 62 60 46 42 44 36 28 23 29 48 55 52
73 79 77 74 71 68 68 66 66 60 56 56 51 49 45 41 36 32 31 31 32 34 36 40 42 41 46 54 61 62 63 61 63 49 37 29 38 48 49 56 49 49 63
77 81 80 77 75 72 76 76 73 69 65 62 58 56 51 47 40 35 34 33 33 34 37 39 41 42 44 53 65 73 67 70 36 33 50 58 53 54 56 46 58 55 50
80 83 82 80 75 76 79 77 73 67 68 62 61 60 56 51 42 38 37 36 34 34 37 39 42 42 42 46 55 59 42 60 19 70 43 54 56 43 52 58 62 77 71
79 85 85 80 75 76 79 78 77 71 69 70 70 68 62 56 49 43 40 37 36 36 37 40 42 41 40 42 42 40 23 20 76 22 79 40 37 47 67 74 81 89 86
74 79 81 79 76 76 80 83 88 89 85 82 74 68 65 60 53 45 41 38 38 37 39 41 42 39 39 44 46 43 47 53 35 53 58 42 76 77 87 94 92 95 95
66 75 79 80 78 77 81 84 88 88 83 73 71 69 68 62 54 48 42 41 39 39 41 43 41 38 38 45 46 48 54 54 54 62 97 74 90 100 99 104 105 114 113
65 70 77 79 79 81 83 82 88 87 86 82 81 77 71 64 58 52 46 43 41 42 44 43 43 41 41 46 51 53 56 58 58 56 78 112 116 120 112 119 117 113 111
Wind_Direction_850mb
193 185 188 194 180 166 152 143 149 151 165 166 195 204 240 251 294 286 300 333 339 339 336 339 345 341 332 330 334 337 329 317 311 313 317 318 321 321 324 330 346 348 337
198 176 180 187 195 194 196 202 194 194 204 217 234 252 275 294 293 294 302 305 309 319 340 340 331 325 325 333 322 321 320 321 319 316 317 321 330 314 318 322 326 330 331
183 187 184 185 182 192 205 221 223 239 249 261 273 280 277 283 289 291 296 294 292 296 299 304 306 307 309 316 316 315 312 312 315 320 320 312 336 336 316 314 306 320 321
184 198 183 187 190 198 216 235 254 256 262 271 278 279 281 286 288 290 292 294 296 295 295 297 299 299 304 305 306 307 306 309 312 316 323 318 287 297 300 300 293 297 305
197 201 196 186 193 201 202 219 240 253 258 266 273 278 283 283 283 284 286 289 292 292 291 292 294 296 296 295 296 296 295 304 309 311 308 309 301 273 269 289 296 285 288
201 194 197 191 185 180 175 183 183 196 239 260 266 268 277 284 291 297 303 306 306 303 303 304 304 301 299 297 295 294 299 305 302 300 301 292 284 291 278 271 277 282 278
206 198 194 192 193 205 212 211 239 266 276 284 282 297 301 305 307 309 311 314 318 319 318 315 311 310 307 306 303 300 297 293 291 291 294 291 286 283 286 285 272 274 279
211 206 198 200 206 208 206 217 228 239 261 281 297 303 308 311 323 332 332 334 332 331 329 326 327 324 323 321 314 309 303 298 293 287 289 293 289 288 288 279 277 269 266
214 213 209 210 214 213 214 217 222 235 250 269 280 300 323 337 346 350 352 349 350 349 343 340 338 334 329 325 319 316 314 308 295 292 288 283 283 281 279 283 272 270 264
218 219 221 219 223 223 222 218 220 237 245 244 241 246 272 308 338 351 356 355 353 347 338 331 326 322 320 319 319 321 315 309 307 300 291 277 267 266 272 280 282 270 267
220 222 223 223 227 227 224 223 224 229 232 233 239 253 278 323 339 348 352 351 346 336 329 323 318 317 316 317 317 317 316 315 309 301 293 277 273 273 272 275 277 277 271
225 223 225 225 226 228 228 228 230 236 241 244 252 271 281 299 319 326 326 322 322 322 323 321 317 314 312 312 311 311 313 314 314 310 303 296 293 289 284 275 274 274 271
231 227 227 225 226 224 228 226 230 234 238 242 247 251 262 278 291 297 301 304 310 319 323 323 320 317 316 316 317 317 315 315 313 310 308 306 302 297 291 289 282 274 270
230 233 228 224 226 224 226 224 227 229 229 233 236 240 252 263 271 279 287 294 303 314 324 328 327 323 320 320 318 315 316 314 312 309 308 306 303 301 298 294 290 285 277
230 232 232 227 225 224 226 227 228 229 230 231 233 240 249 258 268 278 285 294 307 317 326 330 330 327 323 323 324 322 318 316 314 314 309 302 298 297 296 293 290 286 281
230 230 234 229 225 224 224 227 230 230 231 232 235 238 246 255 265 274 284 297 308 318 325 329 331 331 331 330 331 328 326 323 318 315 311 308 303 299 294 291 288 284 281
227 229 233 231 224 223 223 227 227 228 229 232 235 239 246 255 263 272 285 297 309 319 328 333 333 332 331 330 329 327 325 322 320 317 312 306 302 299 294 290 286 284 281
227 227 231 231 225 223 222 226 228 228 228 230 232 237 242 249 256 268 281 296 310 322 331 333 331 328 328 328 328 328 327 326 325 320 311 306 301 294 289 289 293 295 293
228 228 229 230 225 222 221 224 227 227 228 231 236 241 245 251 259 270 283 296 310 321 326 325 323 325 327 326 324 325 326 326 326 324 321 310 306 306 306 304 301 297 295
229 230 231 230 226 221 221 222 226 227 228 232 235 238 241 246 253 265 279 293 304 313 314 318 320 321 324 326 325 325 327 331 330 320 324 322 326 314 308 310 312 314 310
225 226 228 227 226 221 221 222 225 227 228 231 233 237 239 244 250 262 273 283 292 299 308 314 312 317 326 327 328 328 330 338 335 344 330 319 313 311 300 303 302 305 307
224 223 225 230 228 227 227 228 230 230 230 234 234 236 239 243 249 259 269 278 286 295 303 307 306 316 324 330 328 331 332 335 301 317 310 309 295 293 295 300 299 299 302
221 224 227 231 230 228 229 227 228 226 229 230 232 236 238 241 245 254 265 274 283 290 298 302 305 309 316 324 320 319 324 301 313 315 316 320 297 295 299 296 298 302 303
229 227 227 228 230 229 231 229 229 231 229 235 239 238 237 239 243 249 258 269 277 286 291 294 297 303 306 312 313 313 308 306 314 313 326 296 300 302 302 301 301 302 304
226 223 223 225 228 230 231 231 232 234 235 237 236 234 236 239 241 247 257 266 274 281 285 288 292 298 300 301 302 307 303 296 295 293 303 302 301 304 302 302 299 301 303
222 220 220 221 225 228 231 234 235 236 234 232 232 232 235 238 240 247 256 263 270 274 278 284 290 295 296 296 302 302 295 292 293 289 290 301 303 305 302 302 302 303 304